K9JDN Weather Reports


time (UTC)temp
C
wind
direction
speed
KPH
gust
KPH
rain 1hr
cm
rain 24hr
cm
rain mn
cm
humidity
%
barometer
mb
20260504160138 19 0 1.6 6.4 0.00 0.20 0.00 66 1007.9
20260504140111 20 253 0.0 3.2 0.00 0.20 0.00 65 1009.0
20260504110109 15 139 1.6 3.2 0.00 0.20 0.00 76 1009.7
20260504100109 15 125 0.0 1.6 0.00 0.20 0.00 76 1009.9
20260504081559 15 0 0.0 3.2 0.00 0.20 0.00 82 1009.8
20260504060106 16 111 0.0 6.4 0.00 0.20 0.00 78 1010.8
20260504050120 15 0 0.0 0.0 0.18 0.20 0.00 75 1010.2
20260504044557 16 0 0.0 0.0 0.20 0.20 0.20 78 1009.8
20260504043108 16 0 0.0 0.0 0.20 0.20 0.20 71 1009.7
20260504041601 17 0 0.0 3.2 0.20 0.20 0.20 76 1010.3
20260504040106 19 0 1.6 6.4 0.03 0.03 0.03 58 1011.5
20260504034614 20 0 0.0 0.0 0.00 0.00 0.00 60 1010.7
20260504033102 20 0 0.0 4.8 0.00 0.00 0.00 58 1010.9
20260504031611 20 0 0.0 0.0 0.00 0.00 0.00 57 1011.0
20260504030115 20 0 0.0 0.0 0.00 0.00 0.00 56 1011.1
20260504024558 20 0 0.0 0.0 0.00 0.00 0.00 55 1011.0
20260504023059 20 0 0.0 0.0 0.00 0.00 0.00 55 1010.9
20260504021606 20 0 0.0 0.0 0.00 0.00 0.00 55 1011.0
20260504020058 21 0 0.0 0.0 0.00 0.00 0.00 54 1010.9
20260504014559 21 0 0.0 0.0 0.00 0.00 0.00 54 1010.7
20260504013059 21 0 0.0 0.0 0.00 0.00 0.00 52 1010.6
20260504011559 21 0 0.0 0.0 0.00 0.00 0.00 51 1010.4
20260504010059 21 0 0.0 3.2 0.00 0.00 0.00 51 1010.2
20260504004600 22 0 0.0 3.2 0.00 0.00 0.00 50 1010.3
20260504003057 22 7 0.0 1.6 0.00 0.00 0.00 49 1010.3
20260504001559 22 332 0.0 4.8 0.00 0.00 0.00 42 1010.4
20260504000137 23 0 0.0 3.2 0.00 0.00 0.00 47 1010.3
20260503234604 23 148 0.0 4.8 0.00 0.00 0.00 45 1010.6
20260503233057 23 246 0.0 6.4 0.00 0.00 0.00 39 1010.4
20260503231558 24 38 0.0 8.0 0.00 0.00 0.00 44 1010.6
20260503230059 25 302 3.2 11.3 0.00 0.00 0.00 42 1010.8
20260503224559 25 19 3.2 19.3 0.00 0.00 0.00 42 1010.9
20260503223057 25 88 0.0 8.0 0.00 0.00 0.00 36 1010.9
20260503221603 25 274 1.6 9.7 0.00 0.00 0.00 40 1011.0
20260503220057 25 168 1.6 11.3 0.00 0.00 0.00 35 1011.2
20260503214557 25 250 3.2 19.3 0.00 0.00 0.00 34 1011.2
20260503213058 25 289 3.2 14.5 0.00 0.00 0.00 34 1011.6
20260503211603 24 200 3.2 8.0 0.00 0.00 0.00 36 1011.9
20260503210057 24 93 1.6 6.4 0.00 0.00 0.00 36 1011.9
20260503204557 24 22 1.6 6.4 0.00 0.00 0.00 42 1012.1
20260503203109 23 295 1.6 9.7 0.00 0.00 0.00 35 1012.4
20260503201600 23 145 1.6 8.0 0.00 0.00 0.00 39 1012.9
20260503200057 23 152 1.6 8.0 0.00 0.00 0.00 37 1013.4
20260503194602 23 168 0.0 4.8 0.00 0.00 0.00 37 1013.8
20260503193100 23 96 1.6 4.8 0.00 0.00 0.00 44 1014.3
20260503191557 22 155 1.6 8.0 0.00 0.00 0.00 36 1014.5
20260503190057 22 127 3.2 9.7 0.00 0.00 0.00 36 1014.7
20260503184616 22 103 1.6 9.7 0.00 0.00 0.00 37 1015.1
20260503183101 21 240 1.6 8.0 0.00 0.00 0.00 38 1015.4
20260503181559 21 233 1.6 8.0 0.00 0.00 0.00 45 1015.9
20260503180058 21 293 1.6 12.9 0.00 0.00 0.00 41 1016.6
20260503174601 20 280 0.0 11.3 0.00 0.00 0.00 50 1017.2
20260503173059 19 77 3.2 12.9 0.00 0.00 0.00 44 1017.5
20260503171613 19 305 3.2 9.7 0.00 0.00 0.00 46 1017.6
20260503170105 18 227 3.2 12.9 0.00 0.00 0.00 45 1017.8